Time,TemperatureF,DewpointF,PressureIn,WindDirection,WindDirectionDegrees,WindSpeedMPH,WindSpeedGustMPH,Humidity,HourlyPrecipIn,Conditions,Clouds,dailyrainin,SoftwareType,DateUTC
2013-11-16 00:05:00,36.5,30.3,29.27,NNW,339,0.0,14.0,78,0.00,,,0.00,Wunderground v.1.13,2013-11-16 07:05:00,
2013-11-16 00:10:00,36.3,30.1,29.27,NNW,339,0.0,14.0,78,0.00,,,0.00,Wunderground v.1.13,2013-11-16 07:10:00,
2013-11-16 00:14:00,36.2,30.0,29.26,NNW,339,0.0,14.0,78,0.00,,,0.00,Wunderground v.1.13,2013-11-16 07:14:00,
2013-11-16 00:20:00,35.9,30.0,29.26,NNW,339,0.0,14.0,79,0.00,,,0.00,Wunderground v.1.13,2013-11-16 07:20:00,
2013-11-16 00:25:00,35.8,30.2,29.26,NNW,339,0.0,14.0,80,0.00,,,0.00,Wunderground v.1.13,2013-11-16 07:25:00,
2013-11-16 00:30:00,35.6,30.0,29.25,NNW,339,0.0,14.0,80,0.00,,,0.00,Wunderground v.1.13,2013-11-16 07:30:00,
2013-11-16 00:35:00,35.6,30.0,29.25,NNW,339,0.0,14.0,80,0.00,,,0.00,Wunderground v.1.13,2013-11-16 07:35:00,
2013-11-16 00:45:00,35.6,30.6,29.26,NNW,339,0.0,14.0,82,0.00,,,0.00,Wunderground v.1.13,2013-11-16 07:45:00,
2013-11-16 00:50:00,35.6,30.6,29.26,NNW,339,0.0,14.0,82,0.00,,,0.00,Wunderground v.1.13,2013-11-16 07:50:00,
2013-11-16 00:55:00,35.3,30.4,29.26,NNW,339,0.0,14.0,82,0.00,,,0.00,Wunderground v.1.13,2013-11-16 07:55:00,
2013-11-16 01:00:00,35.2,30.6,29.25,NNW,339,0.0,14.0,83,0.00,,,0.00,Wunderground v.1.13,2013-11-16 08:00:00,
2013-11-16 01:05:00,35.0,30.4,29.25,NNW,339,0.0,14.0,83,0.00,,,0.00,Wunderground v.1.13,2013-11-16 08:05:00,
2013-11-16 01:10:00,34.7,30.7,29.25,NNW,339,0.0,14.0,85,0.00,,,0.00,Wunderground v.1.13,2013-11-16 08:10:00,
2013-11-16 01:15:00,34.6,30.6,29.25,NNW,339,0.0,14.0,85,0.00,,,0.00,Wunderground v.1.13,2013-11-16 08:15:00,
2013-11-16 01:20:00,34.3,30.3,29.25,NNW,339,0.0,14.0,85,0.00,,,0.00,Wunderground v.1.13,2013-11-16 08:20:00,
2013-11-16 01:25:00,34.3,30.5,29.25,NNW,339,0.0,14.0,86,0.00,,,0.00,Wunderground v.1.13,2013-11-16 08:25:00,
2013-11-16 01:30:00,34.3,30.5,29.26,NNW,338,0.0,14.0,86,0.00,,,0.00,Wunderground v.1.13,2013-11-16 08:30:00,
2013-11-16 01:40:00,34.4,31.2,29.26,NNW,338,0.0,14.0,88,0.00,,,0.00,Wunderground v.1.13,2013-11-16 08:40:00,
2013-11-16 01:45:00,34.9,31.7,29.26,NNW,336,0.0,14.0,88,0.00,,,0.00,Wunderground v.1.13,2013-11-16 08:45:00,
2013-11-16 01:50:00,35.2,32.3,29.26,NNW,332,0.0,14.0,89,0.00,,,0.00,Wunderground v.1.13,2013-11-16 08:50:00,
2013-11-16 01:55:00,36.0,32.8,29.26,NW,319,0.0,14.0,88,0.00,,,0.00,Wunderground v.1.13,2013-11-16 08:55:00,
2013-11-16 02:00:00,36.6,32.8,29.25,NW,319,0.0,14.0,86,0.00,,,0.00,Wunderground v.1.13,2013-11-16 09:00:00,
2013-11-16 02:05:00,36.3,32.5,29.25,NW,319,0.0,14.0,86,0.00,,,0.00,Wunderground v.1.13,2013-11-16 09:05:00,
2013-11-16 02:10:00,35.9,31.8,29.25,NW,319,0.0,14.0,85,0.00,,,0.00,Wunderground v.1.13,2013-11-16 09:10:00,
2013-11-16 02:15:00,35.5,31.4,29.25,NW,319,0.0,14.0,85,0.00,,,0.00,Wunderground v.1.13,2013-11-16 09:15:00,
2013-11-16 02:20:00,35.2,31.1,29.25,NW,319,0.0,14.0,85,0.00,,,0.00,Wunderground v.1.13,2013-11-16 09:20:00,
2013-11-16 02:25:00,35.0,30.9,29.25,WNW,292,0.0,14.0,85,0.00,,,0.00,Wunderground v.1.13,2013-11-16 09:25:00,
2013-11-16 02:30:00,34.9,30.8,29.25,WNW,292,0.0,14.0,85,0.00,,,0.00,Wunderground v.1.13,2013-11-16 09:30:00,
2013-11-16 02:35:00,34.4,30.4,29.25,WNW,292,0.0,14.0,85,0.00,,,0.00,Wunderground v.1.13,2013-11-16 09:35:00,
2013-11-16 02:40:00,34.1,29.8,29.25,WNW,292,0.0,14.0,84,0.00,,,0.00,Wunderground v.1.13,2013-11-16 09:40:00,
2013-11-16 02:45:00,33.8,29.5,29.23,WNW,292,0.0,14.0,84,0.00,,,0.00,Wunderground v.1.13,2013-11-16 09:45:00,
2013-11-16 02:50:00,33.5,29.2,29.23,WNW,292,0.0,14.0,84,0.00,,,0.00,Wunderground v.1.13,2013-11-16 09:50:00,
2013-11-16 02:55:00,33.4,29.1,29.23,WNW,292,0.0,14.0,84,0.00,,,0.00,Wunderground v.1.13,2013-11-16 09:55:00,
2013-11-16 03:00:00,33.2,28.9,29.23,WNW,292,0.0,14.0,84,0.00,,,0.00,Wunderground v.1.13,2013-11-16 10:00:00,
2013-11-16 03:05:00,33.2,28.9,29.23,WNW,292,0.0,14.0,84,0.00,,,0.00,Wunderground v.1.13,2013-11-16 10:05:00,
2013-11-16 03:10:00,33.2,28.9,29.23,WNW,292,0.0,14.0,84,0.00,,,0.00,Wunderground v.1.13,2013-11-16 10:10:00,
2013-11-16 03:15:00,33.2,28.9,29.23,WNW,292,0.0,14.0,84,0.00,,,0.00,Wunderground v.1.13,2013-11-16 10:15:00,
2013-11-16 03:20:00,33.4,29.1,29.23,WNW,292,0.0,14.0,84,0.00,,,0.00,Wunderground v.1.13,2013-11-16 10:20:00,
2013-11-16 03:25:00,33.7,29.4,29.23,WNW,291,0.0,14.0,84,0.00,,,0.00,Wunderground v.1.13,2013-11-16 10:25:00,
2013-11-16 03:30:00,34.6,30.0,29.23,WNW,284,0.0,14.0,83,0.00,,,0.00,Wunderground v.1.13,2013-11-16 10:30:00,
2013-11-16 03:34:00,35.3,30.1,29.23,West,276,0.0,14.0,81,0.00,,,0.00,Wunderground v.1.13,2013-11-16 10:34:00,
2013-11-16 03:40:00,35.6,30.3,29.23,NW,325,0.0,14.0,81,0.00,,,0.00,Wunderground v.1.13,2013-11-16 10:40:00,
2013-11-16 03:45:00,37.5,31.6,29.23,NNW,338,1.0,14.0,79,0.00,,,0.00,Wunderground v.1.13,2013-11-16 10:45:00,
2013-11-16 03:50:00,38.8,31.6,29.23,NW,320,2.0,2.0,75,0.00,,,0.00,Wunderground v.1.13,2013-11-16 10:50:00,
2013-11-16 03:55:00,39.3,31.0,29.23,North,360,3.0,14.0,72,0.00,,,0.00,Wunderground v.1.13,2013-11-16 10:55:00,
2013-11-16 04:00:00,39.5,30.9,29.21,NNW,331,4.0,4.0,71,0.00,,,0.00,Wunderground v.1.13,2013-11-16 11:00:00,
2013-11-16 04:05:00,39.5,30.9,29.21,NNW,328,5.0,5.0,71,0.00,,,0.00,Wunderground v.1.13,2013-11-16 11:05:00,
2013-11-16 04:10:00,39.5,30.9,29.21,NNW,340,4.0,4.0,71,0.00,,,0.00,Wunderground v.1.13,2013-11-16 11:10:00,
2013-11-16 04:15:00,39.9,30.5,29.22,NW,326,3.0,14.0,69,0.00,,,0.00,Wunderground v.1.13,2013-11-16 11:15:00,
2013-11-16 04:20:00,40.3,30.2,29.22,NNW,329,4.0,14.0,67,0.00,,,0.00,Wunderground v.1.13,2013-11-16 11:20:00,
2013-11-16 04:25:00,40.6,29.7,29.22,NNW,329,4.0,14.0,65,0.00,,,0.00,Wunderground v.1.13,2013-11-16 11:25:00,
2013-11-16 04:30:00,41.1,29.8,29.23,NW,318,5.0,14.0,64,0.00,,,0.00,Wunderground v.1.13,2013-11-16 11:30:00,
2013-11-16 04:35:00,41.3,29.3,29.23,NNW,329,5.0,5.0,62,0.00,,,0.00,Wunderground v.1.13,2013-11-16 11:35:00,
2013-11-16 04:40:00,41.6,29.1,29.23,NNW,331,2.0,2.0,61,0.00,,,0.00,Wunderground v.1.13,2013-11-16 11:40:00,
2013-11-16 04:45:00,41.8,28.9,29.24,NNW,327,1.0,14.0,60,0.00,,,0.00,Wunderground v.1.13,2013-11-16 11:45:00,
2013-11-16 04:50:00,41.8,28.9,29.24,NW,308,1.0,14.0,60,0.00,,,0.00,Wunderground v.1.13,2013-11-16 11:50:00,
2013-11-16 04:55:00,41.8,28.9,29.24,NW,306,0.0,14.0,60,0.00,,,0.00,Wunderground v.1.13,2013-11-16 11:55:00,
2013-11-16 05:00:00,41.8,28.9,29.23,NW,308,0.0,14.0,60,0.00,,,0.00,Wunderground v.1.13,2013-11-16 12:00:00,
2013-11-16 05:05:00,41.6,28.7,29.23,WNW,287,0.0,14.0,60,0.00,,,0.00,Wunderground v.1.13,2013-11-16 12:05:00,
2013-11-16 05:10:00,41.6,29.1,29.23,West,274,1.0,1.0,61,0.00,,,0.00,Wunderground v.1.13,2013-11-16 12:10:00,
2013-11-16 05:15:00,41.3,28.4,29.24,West,281,1.0,14.0,60,0.00,,,0.00,Wunderground v.1.13,2013-11-16 12:15:00,
2013-11-16 05:20:00,41.2,28.4,29.24,WNW,290,2.0,2.0,60,0.00,,,0.00,Wunderground v.1.13,2013-11-16 12:20:00,
2013-11-16 05:25:00,41.3,27.6,29.24,NW,321,2.0,2.0,58,0.00,,,0.00,Wunderground v.1.13,2013-11-16 12:25:00,
2013-11-16 05:30:00,41.5,27.4,29.24,NNW,347,2.0,2.0,57,0.00,,,0.00,Wunderground v.1.13,2013-11-16 12:30:00,
2013-11-16 05:35:00,41.6,27.5,29.24,NW,320,3.0,14.0,57,0.00,,,0.00,Wunderground v.1.13,2013-11-16 12:35:00,
2013-11-16 05:40:00,41.5,27.4,29.24,NW,307,3.0,3.0,57,0.00,,,0.00,Wunderground v.1.13,2013-11-16 12:40:00,
2013-11-16 05:45:00,41.2,27.1,29.24,WNW,286,2.0,2.0,57,0.00,,,0.00,Wunderground v.1.13,2013-11-16 12:45:00,
2013-11-16 05:55:00,40.3,27.1,29.24,WNW,292,0.0,14.0,59,0.00,,,0.00,Wunderground v.1.13,2013-11-16 12:55:00,
2013-11-16 06:05:00,39.5,27.2,29.25,WNW,294,0.0,14.0,61,0.00,,,0.00,Wunderground v.1.13,2013-11-16 13:05:00,
2013-11-16 06:10:00,39.2,26.9,29.25,WSW,255,0.0,14.0,61,0.00,,,0.00,Wunderground v.1.13,2013-11-16 13:10:00,
2013-11-16 06:20:00,38.9,26.2,29.25,NW,304,0.0,14.0,60,0.00,,,0.00,Wunderground v.1.13,2013-11-16 13:20:00,
2013-11-16 06:30:00,38.2,26.3,29.25,West,278,0.0,14.0,62,0.00,,,0.00,Wunderground v.1.13,2013-11-16 13:30:00,
2013-11-16 06:35:00,37.9,26.4,29.25,WNW,299,1.0,1.0,63,0.00,,,0.00,Wunderground v.1.13,2013-11-16 13:35:00,
2013-11-16 06:45:00,37.5,26.0,29.26,SW,235,1.0,1.0,63,0.00,,,0.00,Wunderground v.1.13,2013-11-16 13:45:00,
2013-11-16 06:55:00,37.6,25.7,29.26,WSW,254,2.0,2.0,62,0.00,,,0.00,Wunderground v.1.13,2013-11-16 13:55:00,
2013-11-16 07:00:00,37.5,25.7,29.27,West,260,1.0,1.0,62,0.00,,,0.00,Wunderground v.1.13,2013-11-16 14:00:00,
2013-11-16 07:05:00,37.3,25.5,29.27,WNW,282,1.0,1.0,62,0.00,,,0.00,Wunderground v.1.13,2013-11-16 14:05:00,
2013-11-16 07:10:00,37.2,25.4,29.27,West,276,0.0,14.0,62,0.00,,,0.00,Wunderground v.1.13,2013-11-16 14:10:00,
2013-11-16 07:15:00,37.2,25.4,29.27,WSW,251,1.0,1.0,62,0.00,,,0.00,Wunderground v.1.13,2013-11-16 14:15:00,
2013-11-16 07:20:00,37.0,25.6,29.27,West,259,1.0,1.0,63,0.00,,,0.00,Wunderground v.1.13,2013-11-16 14:20:00,
2013-11-16 07:25:00,37.0,25.6,29.27,West,260,0.0,14.0,63,0.00,,,0.00,Wunderground v.1.13,2013-11-16 14:25:00,
2013-11-16 07:30:00,37.2,25.4,29.27,West,269,0.0,14.0,62,0.00,,,0.00,Wunderground v.1.13,2013-11-16 14:30:00,
2013-11-16 07:35:00,37.5,25.3,29.27,WSW,248,0.0,14.0,61,0.00,,,0.00,Wunderground v.1.13,2013-11-16 14:35:00,
2013-11-16 07:40:00,38.0,25.3,29.27,West,273,1.0,1.0,60,0.00,,,0.00,Wunderground v.1.13,2013-11-16 14:40:00,
2013-11-16 07:45:00,38.6,25.1,29.27,WNW,294,1.0,1.0,58,0.00,,,0.00,Wunderground v.1.13,2013-11-16 14:45:00,
2013-11-16 07:50:00,39.5,24.7,29.27,NW,311,1.0,14.0,55,0.00,,,0.00,Wunderground v.1.13,2013-11-16 14:50:00,
2013-11-16 07:55:00,40.2,24.4,29.27,NW,312,3.0,3.0,53,0.00,,,0.00,Wunderground v.1.13,2013-11-16 14:55:00,
2013-11-16 08:00:00,40.8,24.5,29.27,NW,309,3.0,14.0,52,0.00,,,0.00,Wunderground v.1.13,2013-11-16 15:00:00,
2013-11-16 08:05:00,41.2,24.4,29.27,NW,311,5.0,5.0,51,0.00,,,0.00,Wunderground v.1.13,2013-11-16 15:05:00,
2013-11-16 08:14:00,42.1,23.8,29.27,NW,314,6.0,6.0,48,0.00,,,0.00,Wunderground v.1.13,2013-11-16 15:14:00,
2013-11-16 08:20:00,42.5,23.7,29.27,NW,317,5.0,14.0,47,0.00,,,0.00,Wunderground v.1.13,2013-11-16 15:20:00,
2013-11-16 08:25:00,42.8,23.9,29.27,West,279,4.0,14.0,47,0.00,,,0.00,Wunderground v.1.13,2013-11-16 15:25:00,
2013-11-16 08:30:00,43.3,23.9,29.27,WNW,297,3.0,3.0,46,0.00,,,0.00,Wunderground v.1.13,2013-11-16 15:30:00,
2013-11-16 08:35:00,43.9,23.9,29.27,NW,306,1.0,1.0,45,0.00,,,0.00,Wunderground v.1.13,2013-11-16 15:35:00,
2013-11-16 08:40:00,44.3,23.7,29.27,NNW,334,1.0,14.0,44,0.00,,,0.00,Wunderground v.1.13,2013-11-16 15:40:00,
2013-11-16 08:45:00,44.5,23.4,29.27,NW,307,4.0,14.0,43,0.00,,,0.00,Wunderground v.1.13,2013-11-16 15:45:00,
2013-11-16 08:50:00,44.9,23.7,29.27,NNW,338,4.0,14.0,43,0.00,,,0.00,Wunderground v.1.13,2013-11-16 15:50:00,
2013-11-16 09:00:00,45.8,23.4,29.27,West,281,1.0,1.0,41,0.00,,,0.00,Wunderground v.1.13,2013-11-16 16:00:00,
2013-11-16 09:05:00,46.1,23.1,29.27,NNW,337,1.0,1.0,40,0.00,,,0.00,Wunderground v.1.13,2013-11-16 16:05:00,
2013-11-16 09:10:00,46.7,23.6,29.27,NW,311,2.0,2.0,40,0.00,,,0.00,Wunderground v.1.13,2013-11-16 16:10:00,
2013-11-16 09:15:00,47.1,23.4,29.27,WNW,294,1.0,14.0,39,0.00,,,0.00,Wunderground v.1.13,2013-11-16 16:15:00,
2013-11-16 09:20:00,47.4,24.3,29.27,WSW,254,2.0,2.0,40,0.00,,,0.00,Wunderground v.1.13,2013-11-16 16:20:00,
2013-11-16 09:25:00,47.7,23.3,29.27,West,260,3.0,14.0,38,0.00,,,0.00,Wunderground v.1.13,2013-11-16 16:25:00,
2013-11-16 09:30:00,47.7,23.3,29.27,NNW,340,5.0,5.0,38,0.00,,,0.00,Wunderground v.1.13,2013-11-16 16:30:00,
2013-11-16 09:35:00,48.0,22.9,29.27,WNW,302,5.0,5.0,37,0.00,,,0.00,Wunderground v.1.13,2013-11-16 16:35:00,
2013-11-16 09:40:00,48.3,23.8,29.27,WNW,292,4.0,4.0,38,0.00,,,0.00,Wunderground v.1.13,2013-11-16 16:40:00,
2013-11-16 09:45:00,48.8,22.3,29.28,NW,323,3.0,14.0,35,0.00,,,0.00,Wunderground v.1.13,2013-11-16 16:45:00,
2013-11-16 09:50:00,49.1,22.6,29.28,WNW,299,4.0,4.0,35,0.00,,,0.00,Wunderground v.1.13,2013-11-16 16:50:00,
2013-11-16 09:55:00,49.4,22.9,29.28,NNW,331,4.0,4.0,35,0.00,,,0.00,Wunderground v.1.13,2013-11-16 16:55:00,
2013-11-16 10:00:00,50.1,24.2,29.28,NW,304,1.0,1.0,36,0.00,,,0.00,Wunderground v.1.13,2013-11-16 17:00:00,
2013-11-16 10:05:00,50.7,24.0,29.28,WNW,297,1.0,1.0,35,0.00,,,0.00,Wunderground v.1.13,2013-11-16 17:05:00,
2013-11-16 10:10:00,51.1,22.2,29.28,NW,309,1.0,14.0,32,0.00,,,0.00,Wunderground v.1.13,2013-11-16 17:10:00,
2013-11-16 10:20:00,51.4,22.5,29.28,WSW,250,2.0,14.0,32,0.00,,,0.00,Wunderground v.1.13,2013-11-16 17:20:00,
2013-11-16 10:30:00,51.9,23.7,29.28,NNW,335,1.0,14.0,33,0.00,,,0.00,Wunderground v.1.13,2013-11-16 17:30:00,
2013-11-16 10:35:00,52.5,22.7,29.28,NW,312,1.0,1.0,31,0.00,,,0.00,Wunderground v.1.13,2013-11-16 17:35:00,
2013-11-16 10:40:00,52.6,23.5,29.28,NNW,331,2.0,2.0,32,0.00,,,0.00,Wunderground v.1.13,2013-11-16 17:40:00,
2013-11-16 10:45:00,52.5,22.7,29.27,NNW,329,4.0,14.0,31,0.00,,,0.00,Wunderground v.1.13,2013-11-16 17:45:00,
2013-11-16 10:50:00,52.3,22.5,29.27,NW,309,5.0,14.0,31,0.00,,,0.00,Wunderground v.1.13,2013-11-16 17:50:00,
2013-11-16 10:55:00,52.3,22.5,29.27,NW,321,5.0,5.0,31,0.00,,,0.00,Wunderground v.1.13,2013-11-16 17:55:00,
2013-11-16 11:00:00,52.6,22.8,29.27,NNW,342,3.0,14.0,31,0.00,,,0.00,Wunderground v.1.13,2013-11-16 18:00:00,
2013-11-16 11:05:00,52.6,22.8,29.27,NNW,328,2.0,2.0,31,0.00,,,0.00,Wunderground v.1.13,2013-11-16 18:05:00,
2013-11-16 11:09:00,53.1,22.4,29.27,NNW,327,2.0,14.0,30,0.00,,,0.00,Wunderground v.1.13,2013-11-16 18:09:00,
2013-11-16 11:15:00,53.2,21.7,29.26,WNW,291,5.0,14.0,29,0.00,,,0.00,Wunderground v.1.13,2013-11-16 18:15:00,
2013-11-16 11:20:00,53.2,22.5,29.26,NW,309,7.0,14.0,30,0.00,,,0.00,Wunderground v.1.13,2013-11-16 18:20:00,
2013-11-16 11:30:00,52.6,22.0,29.26,NW,308,9.0,9.0,30,0.00,,,0.00,Wunderground v.1.13,2013-11-16 18:30:00,
2013-11-16 11:35:00,52.6,22.0,29.26,WNW,294,7.0,7.0,30,0.00,,,0.00,Wunderground v.1.13,2013-11-16 18:35:00,
2013-11-16 11:40:00,52.8,23.0,29.26,NW,313,5.0,14.0,31,0.00,,,0.00,Wunderground v.1.13,2013-11-16 18:40:00,
2013-11-16 11:45:00,52.9,22.3,29.25,NW,315,6.0,14.0,30,0.00,,,0.00,Wunderground v.1.13,2013-11-16 18:45:00,
2013-11-16 11:50:00,53.5,22.8,29.25,WNW,290,6.0,6.0,30,0.00,,,0.00,Wunderground v.1.13,2013-11-16 18:50:00,
2013-11-16 11:55:00,53.9,23.1,29.25,NNW,332,4.0,14.0,30,0.00,,,0.00,Wunderground v.1.13,2013-11-16 18:55:00,
2013-11-16 12:00:00,54.2,23.4,29.24,NW,310,5.0,5.0,30,0.00,,,0.00,Wunderground v.1.13,2013-11-16 19:00:00,
2013-11-16 12:05:00,54.1,22.5,29.24,West,277,5.0,5.0,29,0.00,,,0.00,Wunderground v.1.13,2013-11-16 19:05:00,
2013-11-16 12:10:00,54.1,23.3,29.24,NW,304,2.0,2.0,30,0.00,,,0.00,Wunderground v.1.13,2013-11-16 19:10:00,
2013-11-16 12:15:00,54.1,24.1,29.23,West,272,1.0,1.0,31,0.00,,,0.00,Wunderground v.1.13,2013-11-16 19:15:00,
2013-11-16 12:20:00,54.4,24.4,29.23,West,276,1.0,1.0,31,0.00,,,0.00,Wunderground v.1.13,2013-11-16 19:20:00,
2013-11-16 12:25:00,54.5,24.4,29.23,WSW,239,0.0,14.0,31,0.00,,,0.00,Wunderground v.1.13,2013-11-16 19:25:00,
2013-11-16 12:30:00,54.5,24.4,29.23,NW,324,0.0,14.0,31,0.00,,,0.00,Wunderground v.1.13,2013-11-16 19:30:00,
2013-11-16 12:35:00,55.1,24.2,29.23,WSW,241,0.0,14.0,30,0.00,,,0.00,Wunderground v.1.13,2013-11-16 19:35:00,
2013-11-16 12:40:00,55.0,24.9,29.23,West,261,0.0,14.0,31,0.00,,,0.00,Wunderground v.1.13,2013-11-16 19:40:00,
2013-11-16 12:45:00,54.7,26.1,29.23,WSW,254,0.0,14.0,33,0.00,,,0.00,Wunderground v.1.13,2013-11-16 19:45:00,
2013-11-16 12:50:00,54.8,24.7,29.23,WSW,246,0.0,14.0,31,0.00,,,0.00,Wunderground v.1.13,2013-11-16 19:50:00,
2013-11-16 12:55:00,55.1,25.0,29.23,WSW,241,0.0,14.0,31,0.00,,,0.00,Wunderground v.1.13,2013-11-16 19:55:00,
2013-11-16 13:00:00,55.3,25.9,29.22,WSW,246,0.0,14.0,32,0.00,,,0.00,Wunderground v.1.13,2013-11-16 20:00:00,
2013-11-16 13:05:00,55.3,25.9,29.22,WSW,246,0.0,14.0,32,0.00,,,0.00,Wunderground v.1.13,2013-11-16 20:05:00,
2013-11-16 13:15:00,55.9,25.7,29.22,WSW,258,0.0,14.0,31,0.00,,,0.00,Wunderground v.1.13,2013-11-16 20:15:00,
2013-11-16 13:20:00,56.0,25.8,29.22,South,180,0.0,14.0,31,0.00,,,0.00,Wunderground v.1.13,2013-11-16 20:20:00,
2013-11-16 13:25:00,56.2,25.9,29.22,SSW,197,0.0,14.0,31,0.00,,,0.00,Wunderground v.1.13,2013-11-16 20:25:00,
2013-11-16 13:29:00,56.5,26.2,29.22,South,190,0.0,14.0,31,0.00,,,0.00,Wunderground v.1.13,2013-11-16 20:29:00,
2013-11-16 13:35:00,56.3,25.2,29.22,WSW,246,0.0,14.0,30,0.00,,,0.00,Wunderground v.1.13,2013-11-16 20:35:00,
2013-11-16 13:40:00,56.0,25.8,29.22,SW,221,0.0,14.0,31,0.00,,,0.00,Wunderground v.1.13,2013-11-16 20:40:00,
2013-11-16 13:45:00,55.9,24.9,29.22,SW,232,0.0,14.0,30,0.00,,,0.00,Wunderground v.1.13,2013-11-16 20:45:00,
2013-11-16 13:50:00,55.7,24.7,29.22,SSW,200,1.0,1.0,30,0.00,,,0.00,Wunderground v.1.13,2013-11-16 20:50:00,
2013-11-16 13:55:00,55.9,24.9,29.22,SSW,207,1.0,1.0,30,0.00,,,0.00,Wunderground v.1.13,2013-11-16 20:55:00,
2013-11-16 13:59:00,56.0,25.8,29.22,SSW,201,1.0,1.0,31,0.00,,,0.00,Wunderground v.1.13,2013-11-16 20:59:00,
2013-11-16 14:05:00,56.0,25.8,29.22,SSW,200,1.0,1.0,31,0.00,,,0.00,Wunderground v.1.13,2013-11-16 21:05:00,
2013-11-16 14:15:00,55.6,26.9,29.22,South,186,0.0,14.0,33,0.00,,,0.00,Wunderground v.1.13,2013-11-16 21:15:00,
2013-11-16 14:25:00,55.6,26.2,29.22,SSW,198,0.0,14.0,32,0.00,,,0.00,Wunderground v.1.13,2013-11-16 21:25:00,
2013-11-16 14:30:00,55.6,26.9,29.21,South,179,0.0,14.0,33,0.00,,,0.00,Wunderground v.1.13,2013-11-16 21:30:00,
2013-11-16 14:34:00,55.4,26.7,29.21,South,179,0.0,14.0,33,0.00,,,0.00,Wunderground v.1.13,2013-11-16 21:34:00,
2013-11-16 14:39:00,55.6,25.4,29.21,South,184,0.0,14.0,31,0.00,,,0.00,Wunderground v.1.13,2013-11-16 21:39:00,
2013-11-16 14:45:00,55.4,25.2,29.21,SSW,198,0.0,14.0,31,0.00,,,0.00,Wunderground v.1.13,2013-11-16 21:45:00,
2013-11-16 14:50:00,55.1,25.0,29.21,South,182,0.0,14.0,31,0.00,,,0.00,Wunderground v.1.13,2013-11-16 21:50:00,
2013-11-16 14:55:00,55.1,25.7,29.21,South,182,0.0,14.0,32,0.00,,,0.00,Wunderground v.1.13,2013-11-16 21:55:00,
2013-11-16 15:00:00,55.0,25.6,29.21,South,183,0.0,14.0,32,0.00,,,0.00,Wunderground v.1.13,2013-11-16 22:00:00,
2013-11-16 15:05:00,54.7,26.1,29.21,South,183,0.0,14.0,33,0.00,,,0.00,Wunderground v.1.13,2013-11-16 22:05:00,
2013-11-16 15:10:00,54.7,26.8,29.21,South,183,0.0,14.0,34,0.00,,,0.00,Wunderground v.1.13,2013-11-16 22:10:00,
2013-11-16 15:15:00,54.5,26.7,29.22,South,184,0.0,14.0,34,0.00,,,0.00,Wunderground v.1.13,2013-11-16 22:15:00,
2013-11-16 15:20:00,54.4,26.6,29.22,South,184,0.0,14.0,34,0.00,,,0.00,Wunderground v.1.13,2013-11-16 22:20:00,
2013-11-16 15:25:00,54.2,26.4,29.22,South,183,0.0,14.0,34,0.00,,,0.00,Wunderground v.1.13,2013-11-16 22:25:00,
2013-11-16 15:30:00,54.1,27.0,29.22,South,183,0.0,14.0,35,0.00,,,0.00,Wunderground v.1.13,2013-11-16 22:30:00,
2013-11-16 15:35:00,54.1,27.0,29.22,South,183,0.0,14.0,35,0.00,,,0.00,Wunderground v.1.13,2013-11-16 22:35:00,
2013-11-16 15:40:00,54.1,27.7,29.22,South,183,0.0,14.0,36,0.00,,,0.00,Wunderground v.1.13,2013-11-16 22:40:00,
2013-11-16 15:45:00,53.8,27.4,29.22,South,183,0.0,14.0,36,0.00,,,0.00,Wunderground v.1.13,2013-11-16 22:45:00,
2013-11-16 15:50:00,53.5,28.5,29.22,South,183,0.0,14.0,38,0.00,,,0.00,Wunderground v.1.13,2013-11-16 22:50:00,
2013-11-16 15:55:00,53.2,28.9,29.22,South,183,0.0,14.0,39,0.00,,,0.00,Wunderground v.1.13,2013-11-16 22:55:00,
2013-11-16 16:00:00,52.8,29.1,29.23,South,183,0.0,14.0,40,0.00,,,0.00,Wunderground v.1.13,2013-11-16 23:00:00,
2013-11-16 16:05:00,52.3,28.7,29.23,South,183,0.0,14.0,40,0.00,,,0.00,Wunderground v.1.13,2013-11-16 23:05:00,
2013-11-16 16:10:00,51.9,28.9,29.23,South,183,0.0,14.0,41,0.00,,,0.00,Wunderground v.1.13,2013-11-16 23:10:00,
2013-11-16 16:15:00,51.4,28.5,29.23,South,183,0.0,14.0,41,0.00,,,0.00,Wunderground v.1.13,2013-11-16 23:15:00,
2013-11-16 16:20:00,51.1,28.2,29.23,South,183,0.0,14.0,41,0.00,,,0.00,Wunderground v.1.13,2013-11-16 23:20:00,
2013-11-16 16:25:00,50.7,29.0,29.23,South,183,0.0,14.0,43,0.00,,,0.00,Wunderground v.1.13,2013-11-16 23:25:00,
2013-11-16 16:30:00,50.1,29.0,29.23,South,183,0.0,14.0,44,0.00,,,0.00,Wunderground v.1.13,2013-11-16 23:30:00,
2013-11-16 16:35:00,49.4,28.9,29.23,South,183,0.0,14.0,45,0.00,,,0.00,Wunderground v.1.13,2013-11-16 23:35:00,
2013-11-16 16:40:00,48.8,28.9,29.23,South,183,0.0,14.0,46,0.00,,,0.00,Wunderground v.1.13,2013-11-16 23:40:00,
2013-11-16 16:45:00,48.0,28.7,29.24,South,183,0.0,14.0,47,0.00,,,0.00,Wunderground v.1.13,2013-11-16 23:45:00,
2013-11-16 16:50:00,47.0,28.3,29.24,South,183,0.0,14.0,48,0.00,,,0.00,Wunderground v.1.13,2013-11-16 23:50:00,
2013-11-16 16:55:00,46.0,27.9,29.24,South,183,0.0,14.0,49,0.00,,,0.00,Wunderground v.1.13,2013-11-16 23:55:00,
2013-11-16 17:00:00,45.2,27.6,29.25,South,183,0.0,14.0,50,0.00,,,0.00,Wunderground v.1.13,2013-11-17 00:00:00,
2013-11-16 17:05:00,44.6,27.6,29.25,South,183,0.0,14.0,51,0.00,,,0.00,Wunderground v.1.13,2013-11-17 00:05:00,
2013-11-16 17:10:00,44.3,27.3,29.25,South,183,0.0,14.0,51,0.00,,,0.00,Wunderground v.1.13,2013-11-17 00:10:00,
2013-11-16 17:15:00,43.9,27.4,29.25,South,183,0.0,14.0,52,0.00,,,0.00,Wunderground v.1.13,2013-11-17 00:15:00,
2013-11-16 17:20:00,43.6,27.6,29.25,South,183,0.0,14.0,53,0.00,,,0.00,Wunderground v.1.13,2013-11-17 00:20:00,
2013-11-16 17:25:00,43.2,27.2,29.25,South,183,0.0,14.0,53,0.00,,,0.00,Wunderground v.1.13,2013-11-17 00:25:00,
2013-11-16 17:30:00,42.9,27.4,29.26,South,183,0.0,14.0,54,0.00,,,0.00,Wunderground v.1.13,2013-11-17 00:30:00,
2013-11-16 17:35:00,42.5,27.0,29.26,NW,324,0.0,14.0,54,0.00,,,0.00,Wunderground v.1.13,2013-11-17 00:35:00,
2013-11-16 17:40:00,42.6,27.5,29.26,NNW,330,0.0,14.0,55,0.00,,,0.00,Wunderground v.1.13,2013-11-17 00:40:00,
2013-11-16 17:45:00,42.5,27.9,29.27,NNW,330,0.0,14.0,56,0.00,,,0.00,Wunderground v.1.13,2013-11-17 00:45:00,
2013-11-16 17:50:00,42.3,27.7,29.27,NNW,330,0.0,14.0,56,0.00,,,0.00,Wunderground v.1.13,2013-11-17 00:50:00,
2013-11-16 17:55:00,42.3,28.1,29.27,NNW,331,0.0,14.0,57,0.00,,,0.00,Wunderground v.1.13,2013-11-17 00:55:00,
2013-11-16 18:00:00,42.6,28.8,29.26,NNW,331,0.0,14.0,58,0.00,,,0.00,Wunderground v.1.13,2013-11-17 01:00:00,
2013-11-16 18:05:00,43.2,29.0,29.26,NNW,331,0.0,14.0,57,0.00,,,0.00,Wunderground v.1.13,2013-11-17 01:05:00,
2013-11-16 18:10:00,44.2,29.9,29.26,North,350,0.0,14.0,57,0.00,,,0.00,Wunderground v.1.13,2013-11-17 01:10:00,
2013-11-16 18:15:00,45.1,29.4,29.27,North,350,0.0,14.0,54,0.00,,,0.00,Wunderground v.1.13,2013-11-17 01:15:00,
2013-11-16 18:20:00,45.5,29.3,29.27,North,350,0.0,14.0,53,0.00,,,0.00,Wunderground v.1.13,2013-11-17 01:20:00,
2013-11-16 18:25:00,45.7,29.5,29.27,North,350,0.0,14.0,53,0.00,,,0.00,Wunderground v.1.13,2013-11-17 01:25:00,
2013-11-16 18:30:00,45.5,29.8,29.27,North,350,0.0,14.0,54,0.00,,,0.00,Wunderground v.1.13,2013-11-17 01:30:00,
2013-11-16 18:35:00,45.1,29.9,29.27,North,350,0.0,14.0,55,0.00,,,0.00,Wunderground v.1.13,2013-11-17 01:35:00,
2013-11-16 18:40:00,44.5,29.8,29.27,NNW,341,0.0,14.0,56,0.00,,,0.00,Wunderground v.1.13,2013-11-17 01:40:00,
2013-11-16 18:45:00,44.1,29.8,29.27,NNW,341,0.0,14.0,57,0.00,,,0.00,Wunderground v.1.13,2013-11-17 01:45:00,
2013-11-16 18:50:00,43.6,29.4,29.27,NNW,340,0.0,14.0,57,0.00,,,0.00,Wunderground v.1.13,2013-11-17 01:50:00,
2013-11-16 18:55:00,43.1,29.7,29.27,NNW,340,0.0,14.0,59,0.00,,,0.00,Wunderground v.1.13,2013-11-17 01:55:00,
2013-11-16 19:00:00,42.2,29.3,29.27,NNW,340,0.0,14.0,60,0.00,,,0.00,Wunderground v.1.13,2013-11-17 02:00:00,
2013-11-16 19:05:00,41.6,28.7,29.27,NNW,340,0.0,14.0,60,0.00,,,0.00,Wunderground v.1.13,2013-11-17 02:05:00,
2013-11-16 19:15:00,41.8,29.3,29.28,NW,326,0.0,14.0,61,0.00,,,0.00,Wunderground v.1.13,2013-11-17 02:15:00,
2013-11-16 19:20:00,42.3,29.4,29.28,NW,324,0.0,14.0,60,0.00,,,0.00,Wunderground v.1.13,2013-11-17 02:20:00,
2013-11-16 19:25:00,43.3,28.6,29.28,NNW,338,0.0,14.0,56,0.00,,,0.00,Wunderground v.1.13,2013-11-17 02:25:00,
2013-11-16 19:30:00,44.6,28.0,29.28,NNW,346,1.0,1.0,52,0.00,,,0.00,Wunderground v.1.13,2013-11-17 02:30:00,
2013-11-16 19:35:00,46.1,28.5,29.28,NNW,334,1.0,1.0,50,0.00,,,0.00,Wunderground v.1.13,2013-11-17 02:35:00,
2013-11-16 19:39:00,46.0,29.3,29.28,NNW,334,0.0,14.0,52,0.00,,,0.00,Wunderground v.1.13,2013-11-17 02:39:00,
2013-11-16 19:45:00,45.1,29.4,29.29,NNW,331,0.0,14.0,54,0.00,,,0.00,Wunderground v.1.13,2013-11-17 02:45:00,
2013-11-16 19:55:00,43.8,30.0,29.29,NNW,331,0.0,14.0,58,0.00,,,0.00,Wunderground v.1.13,2013-11-17 02:55:00,
2013-11-16 20:00:00,43.5,29.7,29.30,NNW,331,0.0,14.0,58,0.00,,,0.00,Wunderground v.1.13,2013-11-17 03:00:00,
2013-11-16 20:09:00,43.6,29.4,29.30,NNW,331,0.0,14.0,57,0.00,,,0.00,Wunderground v.1.13,2013-11-17 03:09:00,
2013-11-16 20:14:00,44.3,28.7,29.31,NNW,336,0.0,14.0,54,0.00,,,0.00,Wunderground v.1.13,2013-11-17 03:14:00,
2013-11-16 20:20:00,45.4,28.3,29.31,NNW,333,1.0,14.0,51,0.00,,,0.00,Wunderground v.1.13,2013-11-17 03:20:00,
2013-11-16 20:25:00,46.4,28.8,29.31,NNW,338,3.0,3.0,50,0.00,,,0.00,Wunderground v.1.13,2013-11-17 03:25:00,
2013-11-16 20:30:00,47.3,29.6,29.31,NW,319,5.0,5.0,50,0.00,,,0.00,Wunderground v.1.13,2013-11-17 03:30:00,
2013-11-16 20:35:00,48.2,30.4,29.31,WNW,296,6.0,14.0,50,0.00,,,0.00,Wunderground v.1.13,2013-11-17 03:35:00,
2013-11-16 20:40:00,48.6,31.8,29.31,NNW,333,6.0,14.0,52,0.00,,,0.00,Wunderground v.1.13,2013-11-17 03:40:00,
2013-11-16 20:45:00,48.9,32.5,29.31,NNW,329,7.0,7.0,53,0.00,,,0.00,Wunderground v.1.13,2013-11-17 03:45:00,
2013-11-16 20:50:00,49.2,32.3,29.31,NW,305,8.0,8.0,52,0.00,,,0.00,Wunderground v.1.13,2013-11-17 03:50:00,
2013-11-16 21:00:00,49.2,31.8,29.31,NW,323,5.0,5.0,51,0.00,,,0.00,Wunderground v.1.13,2013-11-17 04:00:00,
2013-11-16 21:05:00,49.4,32.0,29.31,NW,319,7.0,14.0,51,0.00,,,0.00,Wunderground v.1.13,2013-11-17 04:05:00,
2013-11-16 21:10:00,49.5,31.6,29.31,NW,313,11.0,14.0,50,0.00,,,0.00,Wunderground v.1.13,2013-11-17 04:10:00,
2013-11-16 21:14:00,49.4,32.0,29.31,NNW,333,10.0,14.0,51,0.00,,,0.00,Wunderground v.1.13,2013-11-17 04:14:00,
2013-11-16 21:19:00,49.2,31.3,29.31,NW,324,8.0,14.0,50,0.00,,,0.00,Wunderground v.1.13,2013-11-17 04:19:00,
2013-11-16 21:24:00,49.2,31.3,29.31,NNW,327,7.0,7.0,50,0.00,,,0.00,Wunderground v.1.13,2013-11-17 04:24:00,
2013-11-16 21:30:00,49.1,31.2,29.30,NW,311,4.0,14.0,50,0.00,,,0.00,Wunderground v.1.13,2013-11-17 04:30:00,
2013-11-16 21:35:00,49.1,30.7,29.30,NW,321,2.0,2.0,49,0.00,,,0.00,Wunderground v.1.13,2013-11-17 04:35:00,
2013-11-16 21:40:00,49.1,30.7,29.30,WNW,300,1.0,1.0,49,0.00,,,0.00,Wunderground v.1.13,2013-11-17 04:40:00,
2013-11-16 21:45:00,49.1,30.7,29.30,WNW,300,0.0,14.0,49,0.00,,,0.00,Wunderground v.1.13,2013-11-17 04:45:00,
2013-11-16 21:50:00,49.1,30.2,29.30,NW,309,0.0,14.0,48,0.00,,,0.00,Wunderground v.1.13,2013-11-17 04:50:00,
2013-11-16 21:55:00,49.1,30.2,29.30,NW,322,0.0,14.0,48,0.00,,,0.00,Wunderground v.1.13,2013-11-17 04:55:00,
2013-11-16 22:00:00,49.1,29.7,29.30,WNW,296,0.0,14.0,47,0.00,,,0.00,Wunderground v.1.13,2013-11-17 05:00:00,
2013-11-16 22:05:00,49.2,29.8,29.30,WNW,298,0.0,14.0,47,0.00,,,0.00,Wunderground v.1.13,2013-11-17 05:05:00,
2013-11-16 22:10:00,49.2,29.3,29.30,WNW,298,0.0,14.0,46,0.00,,,0.00,Wunderground v.1.13,2013-11-17 05:10:00,
2013-11-16 22:20:00,49.5,28.5,29.32,WNW,284,2.0,14.0,44,0.00,,,0.00,Wunderground v.1.13,2013-11-17 05:20:00,
2013-11-16 22:25:00,50.1,27.3,29.32,WNW,300,4.0,14.0,41,0.00,,,0.00,Wunderground v.1.13,2013-11-17 05:25:00,
2013-11-16 22:29:00,50.2,26.2,29.31,WNW,286,2.0,2.0,39,0.00,,,0.00,Wunderground v.1.13,2013-11-17 05:29:00,
2013-11-16 22:34:00,50.4,25.7,29.31,WNW,283,0.0,14.0,38,0.00,,,0.00,Wunderground v.1.13,2013-11-17 05:34:00,
2013-11-16 22:40:00,50.4,23.7,29.31,WNW,284,1.0,1.0,35,0.00,,,0.00,Wunderground v.1.13,2013-11-17 05:40:00,
2013-11-16 22:45:00,50.7,24.0,29.31,West,266,2.0,2.0,35,0.00,,,0.00,Wunderground v.1.13,2013-11-17 05:45:00,
2013-11-16 22:50:00,50.5,24.5,29.31,WNW,286,3.0,14.0,36,0.00,,,0.00,Wunderground v.1.13,2013-11-17 05:50:00,
2013-11-16 22:55:00,50.2,24.9,29.31,WNW,302,1.0,1.0,37,0.00,,,0.00,Wunderground v.1.13,2013-11-17 05:55:00,
2013-11-16 23:00:00,49.8,25.2,29.31,WNW,292,0.0,14.0,38,0.00,,,0.00,Wunderground v.1.13,2013-11-17 06:00:00,
2013-11-16 23:05:00,49.4,24.8,29.31,WNW,292,0.0,14.0,38,0.00,,,0.00,Wunderground v.1.13,2013-11-17 06:05:00,
2013-11-16 23:10:00,49.1,24.6,29.31,WNW,293,0.0,14.0,38,0.00,,,0.00,Wunderground v.1.13,2013-11-17 06:10:00,
2013-11-16 23:20:00,48.8,24.3,29.31,WNW,289,2.0,14.0,38,0.00,,,0.00,Wunderground v.1.13,2013-11-17 06:20:00,
2013-11-16 23:24:00,48.9,23.1,29.31,West,263,4.0,4.0,36,0.00,,,0.00,Wunderground v.1.13,2013-11-17 06:24:00,
2013-11-16 23:29:00,48.9,23.1,29.32,NW,311,4.0,4.0,36,0.00,,,0.00,Wunderground v.1.13,2013-11-17 06:29:00,
2013-11-16 23:34:00,48.8,23.6,29.32,WNW,291,3.0,3.0,37,0.00,,,0.00,Wunderground v.1.13,2013-11-17 06:34:00,
2013-11-16 23:39:00,48.3,23.8,29.32,WNW,293,2.0,2.0,38,0.00,,,0.00,Wunderground v.1.13,2013-11-17 06:39:00,
2013-11-16 23:44:00,48.0,24.2,29.32,WNW,292,1.0,1.0,39,0.00,,,0.00,Wunderground v.1.13,2013-11-17 06:44:00,
2013-11-16 23:50:00,47.6,24.4,29.32,WNW,303,1.0,1.0,40,0.00,,,0.00,Wunderground v.1.13,2013-11-17 06:50:00,
2013-11-16 23:55:00,47.3,24.2,29.32,WNW,283,2.0,14.0,40,0.00,,,0.00,Wunderground v.1.13,2013-11-17 06:55:00,